Time,TemperatureF,DewpointF,PressureIn,WindDirection,WindDirectionDegrees,WindSpeedMPH,WindSpeedGustMPH,Humidity,HourlyPrecipIn,Conditions,Clouds,dailyrainin,SoftwareType,DateUTC
2013-02-04 00:03:00,24.0,18.0,30.07,NW,317,2.0,4.0,78,0.00,,,0.00,,2013-02-04 05:03:00,
2013-02-04 00:11:00,24.0,18.0,30.07,NW,317,2.0,4.0,78,0.00,,,0.00,,2013-02-04 05:11:00,
2013-02-04 00:22:00,24.0,18.0,30.06,NW,317,0.0,2.0,78,0.00,,,0.00,,2013-02-04 05:22:00,
2013-02-04 00:33:00,24.0,18.0,30.06,NW,317,0.0,3.0,78,0.00,,,0.00,,2013-02-04 05:33:00,
2013-02-04 00:42:00,24.0,18.0,30.06,NW,317,0.0,3.0,78,0.00,,,0.00,,2013-02-04 05:42:00,
2013-02-04 00:52:00,24.0,18.0,30.06,NW,317,0.0,1.0,79,0.00,,,0.00,,2013-02-04 05:52:00,
2013-02-04 01:01:00,24.0,18.0,30.05,NW,317,0.0,1.0,79,0.00,,,0.00,,2013-02-04 06:01:00,
2013-02-04 01:11:00,24.0,18.0,30.05,NW,317,0.0,1.0,79,0.00,,,0.00,,2013-02-04 06:11:00,
2013-02-04 01:21:00,24.0,19.0,30.05,NW,317,1.0,2.0,80,0.00,,,0.00,,2013-02-04 06:21:00,
2013-02-04 01:32:00,24.0,19.0,30.05,NW,317,0.0,3.0,80,0.00,,,0.00,,2013-02-04 06:32:00,
2013-02-04 01:41:00,24.0,19.0,30.05,NW,317,0.0,3.0,80,0.00,,,0.00,,2013-02-04 06:41:00,
2013-02-04 01:52:00,25.0,20.0,30.05,NW,317,0.0,2.0,80,0.00,,,0.00,,2013-02-04 06:52:00,
2013-02-04 02:02:00,25.0,20.0,30.04,NW,317,0.0,0.0,80,0.00,,,0.00,,2013-02-04 07:02:00,
2013-02-04 02:11:00,25.0,20.0,30.04,NW,317,0.0,0.0,82,0.00,,,0.00,,2013-02-04 07:11:00,
2013-02-04 02:21:00,25.0,20.0,30.04,NW,317,0.0,0.0,82,0.00,,,0.00,,2013-02-04 07:21:00,
2013-02-04 02:31:00,24.0,19.0,30.04,NW,317,0.0,1.0,81,0.00,,,0.00,,2013-02-04 07:31:00,
2013-02-04 02:42:00,24.0,19.0,30.04,NW,317,0.0,1.0,81,0.00,,,0.00,,2013-02-04 07:42:00,
2013-02-04 02:52:00,24.0,19.0,30.04,NW,317,0.0,1.0,81,0.00,,,0.00,,2013-02-04 07:52:00,
2013-02-04 03:01:00,24.0,20.0,30.03,NW,317,0.0,1.0,84,0.00,,,0.00,,2013-02-04 08:01:00,
2013-02-04 03:11:00,24.0,20.0,30.03,NW,317,0.0,1.0,84,0.00,,,0.00,,2013-02-04 08:11:00,
2013-02-04 03:21:00,24.0,20.0,30.02,NW,317,0.0,0.0,85,0.00,,,0.00,,2013-02-04 08:21:00,
2013-02-04 03:31:00,24.0,20.0,30.01,NW,317,0.0,2.0,85,0.00,,,0.00,,2013-02-04 08:31:00,
2013-02-04 03:42:00,24.0,20.0,30.01,NW,317,0.0,2.0,85,0.00,,,0.00,,2013-02-04 08:42:00,
2013-02-04 03:52:00,24.0,20.0,30.01,NW,317,0.0,2.0,84,0.00,,,0.00,,2013-02-04 08:52:00,
2013-02-04 04:02:00,23.0,19.0,30.00,NW,317,0.0,1.0,84,0.00,,,0.00,,2013-02-04 09:02:00,
2013-02-04 04:11:00,23.0,19.0,29.99,NW,317,0.0,1.0,84,0.00,,,0.00,,2013-02-04 09:11:00,
2013-02-04 04:21:00,23.0,19.0,29.99,NW,317,0.0,1.0,84,0.00,,,0.00,,2013-02-04 09:21:00,
2013-02-04 04:31:00,23.0,19.0,29.98,NW,317,0.0,0.0,84,0.00,,,0.00,,2013-02-04 09:31:00,
2013-02-04 04:41:00,23.0,19.0,29.98,NW,317,0.0,0.0,84,0.00,,,0.00,,2013-02-04 09:41:00,
2013-02-04 04:52:00,23.0,19.0,29.97,NW,317,0.0,2.0,85,0.00,,,0.00,,2013-02-04 09:52:00,
2013-02-04 05:01:00,23.0,19.0,29.96,NW,317,0.0,1.0,86,0.00,,,0.00,,2013-02-04 10:01:00,
2013-02-04 05:11:00,23.0,19.0,29.96,NW,317,0.0,1.0,86,0.00,,,0.00,,2013-02-04 10:11:00,
2013-02-04 05:21:00,23.0,19.0,29.96,NW,317,0.0,1.0,86,0.00,,,0.00,,2013-02-04 10:21:00,
2013-02-04 05:32:00,23.0,19.0,29.95,NW,317,0.0,1.0,85,0.00,,,0.00,,2013-02-04 10:32:00,
2013-02-04 05:41:00,23.0,19.0,29.95,NW,317,0.0,1.0,85,0.00,,,0.00,,2013-02-04 10:41:00,
2013-02-04 05:52:00,24.0,20.0,29.94,NW,317,0.0,2.0,86,0.00,,,0.00,,2013-02-04 10:52:00,
2013-02-04 06:01:00,24.0,20.0,29.93,NW,306,1.0,5.0,85,0.00,,,0.00,,2013-02-04 11:01:00,
2013-02-04 06:11:00,24.0,20.0,29.93,NW,306,1.0,5.0,85,0.00,,,0.00,,2013-02-04 11:11:00,
2013-02-04 06:22:00,24.0,20.0,29.92,NW,306,0.0,2.0,85,0.00,,,0.00,,2013-02-04 11:22:00,
2013-02-04 06:32:00,25.0,21.0,29.92,NW,304,0.0,2.0,85,0.00,,,0.00,,2013-02-04 11:32:00,
2013-02-04 06:42:00,25.0,21.0,29.92,NW,304,0.0,2.0,85,0.00,,,0.00,,2013-02-04 11:42:00,
2013-02-04 06:52:00,25.0,21.0,29.91,NW,305,0.0,3.0,85,0.00,,,0.00,,2013-02-04 11:52:00,
2013-02-04 07:02:00,25.0,21.0,29.91,NW,305,1.0,4.0,84,0.00,,,0.00,,2013-02-04 12:02:00,
2013-02-04 07:12:00,25.0,21.0,29.91,NW,305,1.0,4.0,84,0.00,,,0.00,,2013-02-04 12:12:00,
2013-02-04 07:22:00,25.0,21.0,29.91,SSE,160,1.0,5.0,83,0.00,,,0.00,,2013-02-04 12:22:00,
2013-02-04 07:32:00,26.0,21.0,29.90,WSW,248,1.0,3.0,82,0.00,,,0.00,,2013-02-04 12:32:00,
2013-02-04 07:42:00,26.0,21.0,29.90,WSW,248,1.0,3.0,82,0.00,,,0.00,,2013-02-04 12:42:00,
2013-02-04 07:53:00,26.0,21.0,29.89,SW,229,0.0,3.0,82,0.00,,,0.00,,2013-02-04 12:53:00,
2013-02-04 08:02:00,26.0,22.0,29.89,SW,226,0.0,3.0,83,0.00,,,0.00,,2013-02-04 13:02:00,
2013-02-04 08:12:00,26.0,22.0,29.88,SSW,211,0.0,3.0,83,0.00,,,0.00,,2013-02-04 13:12:00,
2013-02-04 08:21:00,26.0,22.0,29.88,SSW,211,0.0,3.0,83,0.00,,,0.00,,2013-02-04 13:21:00,
2013-02-04 08:33:00,26.0,22.0,29.86,SW,227,1.0,7.0,83,0.00,,,0.00,,2013-02-04 13:33:00,
2013-02-04 08:42:00,26.0,22.0,29.86,SW,227,1.0,7.0,83,0.00,,,0.00,,2013-02-04 13:42:00,
2013-02-04 08:52:00,26.0,21.0,29.87,ESE,113,1.0,5.0,82,0.00,,,0.00,,2013-02-04 13:52:00,
2013-02-04 09:03:00,27.0,22.0,29.85,SE,146,2.0,7.0,81,0.00,,,0.00,,2013-02-04 14:03:00,
2013-02-04 09:11:00,27.0,22.0,29.85,SE,146,2.0,7.0,81,0.00,,,0.00,,2013-02-04 14:11:00,
2013-02-04 09:22:00,27.0,22.0,29.85,WSW,240,2.0,8.0,80,0.00,,,0.00,,2013-02-04 14:22:00,
2013-02-04 09:32:00,27.0,22.0,29.84,SSW,200,2.0,6.0,81,0.00,,,0.00,,2013-02-04 14:32:00,
2013-02-04 09:42:00,27.0,22.0,29.84,SSW,200,2.0,6.0,81,0.00,,,0.00,,2013-02-04 14:42:00,
2013-02-04 09:52:00,28.0,23.0,29.85,SW,217,1.0,5.0,80,0.00,,,0.00,,2013-02-04 14:52:00,
2013-02-04 10:03:00,28.0,23.0,29.85,SSW,201,2.0,6.0,80,0.00,,,0.00,,2013-02-04 15:03:00,
2013-02-04 10:12:00,28.0,23.0,29.85,SSW,201,2.0,6.0,80,0.00,,,0.00,,2013-02-04 15:12:00,
2013-02-04 10:23:00,29.0,23.0,29.84,WSW,246,2.0,6.0,79,0.00,,,0.00,,2013-02-04 15:23:00,
2013-02-04 10:33:00,29.0,23.0,29.84,WSW,242,2.0,6.0,79,0.00,,,0.00,,2013-02-04 15:33:00,
2013-02-04 10:43:00,29.0,23.0,29.84,WSW,242,2.0,6.0,79,0.00,,,0.00,,2013-02-04 15:43:00,
2013-02-04 10:52:00,30.0,24.0,29.84,WSW,249,1.0,5.0,78,0.00,,,0.00,,2013-02-04 15:52:00,
2013-02-04 11:02:00,31.0,25.0,29.84,SW,230,1.0,4.0,77,0.00,,,0.00,,2013-02-04 16:02:00,
2013-02-04 11:11:00,31.0,25.0,29.84,SW,230,1.0,4.0,77,0.00,,,0.00,,2013-02-04 16:11:00,
2013-02-04 11:22:00,31.0,25.0,29.84,WSW,238,1.0,5.0,77,0.00,,,0.00,,2013-02-04 16:22:00,
2013-02-04 11:32:00,31.0,24.0,29.84,SW,232,3.0,5.0,76,0.00,,,0.00,,2013-02-04 16:32:00,
2013-02-04 11:42:00,31.0,24.0,29.84,SW,232,3.0,5.0,76,0.00,,,0.00,,2013-02-04 16:42:00,
2013-02-04 11:52:00,32.0,26.0,29.84,WSW,238,1.0,4.0,78,0.00,,,0.00,,2013-02-04 16:52:00,
2013-02-04 12:02:00,32.0,26.0,29.84,WSW,253,2.0,6.0,77,0.00,,,0.00,,2013-02-04 17:02:00,
2013-02-04 12:11:00,32.0,25.0,29.83,WSW,257,2.0,6.0,76,0.00,,,0.00,,2013-02-04 17:11:00,
2013-02-04 12:21:00,32.0,25.0,29.83,WSW,257,2.0,6.0,76,0.00,,,0.00,,2013-02-04 17:21:00,
2013-02-04 12:32:00,33.0,26.0,29.82,WSW,252,1.0,4.0,76,0.00,,,0.00,,2013-02-04 17:32:00,
2013-02-04 12:42:00,33.0,27.0,29.81,SW,219,1.0,5.0,77,0.00,,,0.00,,2013-02-04 17:42:00,
2013-02-04 12:52:00,33.0,27.0,29.81,SW,219,1.0,5.0,77,0.00,,,0.00,,2013-02-04 17:52:00,
2013-02-04 13:03:00,33.0,26.0,29.81,SW,214,1.0,4.0,76,0.00,,,0.00,,2013-02-04 18:03:00,
2013-02-04 13:11:00,33.0,26.0,29.81,SW,214,1.0,4.0,76,0.00,,,0.00,,2013-02-04 18:11:00,
2013-02-04 13:22:00,34.0,27.0,29.80,SW,215,0.0,2.0,76,0.00,,,0.00,,2013-02-04 18:22:00,
2013-02-04 13:31:00,35.0,28.0,29.80,WNW,287,0.0,2.0,75,0.00,,,0.00,,2013-02-04 18:31:00,
2013-02-04 13:41:00,35.0,28.0,29.80,WNW,287,0.0,2.0,75,0.00,,,0.00,,2013-02-04 18:41:00,
2013-02-04 13:52:00,35.0,28.0,29.80,NW,315,3.0,8.0,74,0.00,,,0.00,,2013-02-04 18:52:00,
2013-02-04 14:02:00,36.0,29.0,29.79,West,275,2.0,6.0,75,0.00,,,0.00,,2013-02-04 19:02:00,
2013-02-04 14:11:00,36.0,29.0,29.79,West,275,2.0,6.0,75,0.00,,,0.00,,2013-02-04 19:11:00,
2013-02-04 14:22:00,36.0,29.0,29.78,NW,319,3.0,5.0,75,0.00,,,0.00,,2013-02-04 19:22:00,
2013-02-04 14:31:00,38.0,30.0,29.78,WNW,284,3.0,6.0,74,0.00,,,0.00,,2013-02-04 19:31:00,
2013-02-04 14:41:00,38.0,30.0,29.78,WNW,284,3.0,6.0,74,0.00,,,0.00,,2013-02-04 19:41:00,
2013-02-04 14:52:00,39.0,31.0,29.79,NW,315,2.0,6.0,73,0.01,,,0.01,,2013-02-04 19:52:00,
2013-02-04 15:02:00,39.0,31.0,29.78,NW,317,2.0,7.0,73,0.01,,,0.01,,2013-02-04 20:02:00,
2013-02-04 15:12:00,39.0,31.0,29.78,NW,317,2.0,7.0,73,0.01,,,0.01,,2013-02-04 20:12:00,
2013-02-04 15:21:00,39.0,32.0,29.79,NW,319,4.0,9.0,75,0.01,,,0.01,,2013-02-04 20:21:00,
2013-02-04 15:32:00,39.0,32.0,29.79,NNE,17,3.0,8.0,75,0.01,,,0.01,,2013-02-04 20:32:00,
2013-02-04 15:42:00,39.0,32.0,29.79,NNE,17,3.0,8.0,75,0.01,,,0.01,,2013-02-04 20:42:00,
2013-02-04 15:52:00,38.0,31.0,29.79,NNE,13,3.0,6.0,75,0.00,,,0.01,,2013-02-04 20:52:00,
2013-02-04 16:02:00,38.0,31.0,29.80,NNE,20,3.0,9.0,75,0.00,,,0.01,,2013-02-04 21:02:00,
2013-02-04 16:11:00,38.0,31.0,29.80,NNE,20,3.0,9.0,75,0.00,,,0.01,,2013-02-04 21:11:00,
2013-02-04 16:22:00,38.0,31.0,29.80,NNE,30,3.0,7.0,76,0.00,,,0.01,,2013-02-04 21:22:00,
2013-02-04 16:31:00,37.0,30.0,29.81,NNE,13,3.0,8.0,76,0.00,,,0.01,,2013-02-04 21:31:00,
2013-02-04 16:42:00,37.0,30.0,29.81,NNE,13,3.0,8.0,76,0.00,,,0.01,,2013-02-04 21:42:00,
2013-02-04 16:52:00,37.0,31.0,29.81,ENE,73,3.0,9.0,78,0.00,,,0.01,,2013-02-04 21:52:00,
2013-02-04 17:02:00,36.0,30.0,29.81,NE,44,4.0,10.0,80,0.01,,,0.02,,2013-02-04 22:02:00,
2013-02-04 17:12:00,36.0,30.0,29.81,NE,44,4.0,10.0,80,0.01,,,0.02,,2013-02-04 22:12:00,
2013-02-04 17:21:00,35.0,30.0,29.82,ENE,67,3.0,8.0,81,0.01,,,0.02,,2013-02-04 22:21:00,
2013-02-04 17:32:00,35.0,30.0,29.81,NNE,28,2.0,7.0,82,0.01,,,0.02,,2013-02-04 22:32:00,
2013-02-04 17:42:00,35.0,30.0,29.81,NNE,28,2.0,7.0,82,0.01,,,0.02,,2013-02-04 22:42:00,
2013-02-04 17:52:00,34.0,29.0,29.80,NE,34,1.0,4.0,81,0.01,,,0.02,,2013-02-04 22:52:00,
2013-02-04 18:01:00,34.0,29.0,29.81,ENE,74,2.0,8.0,81,0.00,,,0.02,,2013-02-04 23:01:00,
2013-02-04 18:11:00,34.0,29.0,29.81,ENE,74,2.0,8.0,81,0.00,,,0.02,,2013-02-04 23:11:00,
2013-02-04 18:21:00,33.0,28.0,29.81,NE,46,1.0,5.0,82,0.00,,,0.02,,2013-02-04 23:21:00,
2013-02-04 18:32:00,33.0,28.0,29.82,NE,45,0.0,6.0,83,0.00,,,0.02,,2013-02-04 23:32:00,
2013-02-04 18:42:00,33.0,28.0,29.82,NE,45,0.0,6.0,83,0.00,,,0.02,,2013-02-04 23:42:00,
2013-02-04 18:52:00,32.0,27.0,29.83,NE,55,4.0,8.0,83,0.00,,,0.02,,2013-02-04 23:52:00,
2013-02-04 19:01:00,32.0,27.0,29.84,ENE,69,1.0,9.0,82,0.00,,,0.02,,2013-02-05 00:01:00,
2013-02-04 19:11:00,32.0,27.0,29.84,ENE,69,1.0,9.0,82,0.00,,,0.02,,2013-02-05 00:11:00,
2013-02-04 19:21:00,32.0,27.0,29.85,NE,51,6.0,9.0,82,0.00,,,0.02,,2013-02-05 00:21:00,
2013-02-04 19:31:00,32.0,27.0,29.86,NE,55,3.0,7.0,82,0.00,,,0.02,,2013-02-05 00:31:00,
2013-02-04 19:42:00,32.0,27.0,29.86,NE,55,3.0,7.0,82,0.00,,,0.02,,2013-02-05 00:42:00,
2013-02-04 19:52:00,31.0,27.0,29.87,NE,34,4.0,10.0,84,0.00,,,0.02,,2013-02-05 00:52:00,
2013-02-04 20:01:00,31.0,27.0,29.88,NE,50,2.0,7.0,84,0.00,,,0.02,,2013-02-05 01:01:00,
2013-02-04 20:11:00,31.0,27.0,29.88,NE,50,2.0,7.0,84,0.00,,,0.02,,2013-02-05 01:11:00,
2013-02-04 20:22:00,30.0,26.0,29.88,NNE,30,4.0,7.0,84,0.00,,,0.02,,2013-02-05 01:22:00,
2013-02-04 20:32:00,30.0,26.0,29.89,NE,44,5.0,10.0,85,0.00,,,0.02,,2013-02-05 01:32:00,
2013-02-04 20:42:00,30.0,26.0,29.89,NE,44,5.0,10.0,85,0.00,,,0.02,,2013-02-05 01:42:00,
2013-02-04 20:52:00,30.0,26.0,29.91,NNE,23,0.0,8.0,85,0.00,,,0.02,,2013-02-05 01:52:00,
2013-02-04 21:01:00,30.0,26.0,29.91,NNE,17,4.0,9.0,84,0.00,,,0.02,,2013-02-05 02:01:00,
2013-02-04 21:11:00,30.0,26.0,29.91,NNE,17,4.0,9.0,84,0.00,,,0.02,,2013-02-05 02:11:00,
2013-02-04 21:22:00,29.0,25.0,29.90,ENE,76,5.0,12.0,83,0.00,,,0.02,,2013-02-05 02:22:00,
2013-02-04 21:31:00,29.0,25.0,29.91,ENE,74,3.0,7.0,83,0.00,,,0.02,,2013-02-05 02:31:00,
2013-02-04 21:41:00,29.0,25.0,29.91,ENE,74,3.0,7.0,83,0.00,,,0.02,,2013-02-05 02:41:00,
2013-02-04 21:52:00,29.0,25.0,29.91,NE,51,4.0,9.0,84,0.00,,,0.02,,2013-02-05 02:52:00,
2013-02-04 22:02:00,29.0,25.0,29.91,NNE,21,4.0,10.0,83,0.00,,,0.02,,2013-02-05 03:02:00,
2013-02-04 22:11:00,29.0,25.0,29.91,NNE,21,4.0,10.0,83,0.00,,,0.02,,2013-02-05 03:11:00,
2013-02-04 22:21:00,29.0,25.0,29.91,NE,45,3.0,8.0,83,0.00,,,0.02,,2013-02-05 03:21:00,
2013-02-04 22:31:00,29.0,25.0,29.90,East,95,4.0,8.0,84,0.00,,,0.02,,2013-02-05 03:31:00,
2013-02-04 22:42:00,29.0,25.0,29.90,East,95,4.0,8.0,84,0.00,,,0.02,,2013-02-05 03:42:00,
2013-02-04 22:52:00,28.0,24.0,29.92,NE,42,4.0,10.0,83,0.00,,,0.02,,2013-02-05 03:52:00,
2013-02-04 23:01:00,28.0,24.0,29.93,NE,52,2.0,9.0,83,0.00,,,0.02,,2013-02-05 04:01:00,
2013-02-04 23:11:00,28.0,24.0,29.93,NE,52,2.0,9.0,83,0.00,,,0.02,,2013-02-05 04:11:00,
2013-02-04 23:21:00,28.0,23.0,29.92,NE,49,3.0,8.0,82,0.00,,,0.02,,2013-02-05 04:21:00,
2013-02-04 23:32:00,28.0,23.0,29.90,East,101,3.0,7.0,82,0.00,,,0.02,,2013-02-05 04:32:00,
2013-02-04 23:42:00,28.0,23.0,29.90,East,101,3.0,7.0,82,0.00,,,0.02,,2013-02-05 04:42:00,
2013-02-04 23:52:00,28.0,24.0,29.90,ESE,106,1.0,5.0,83,0.00,,,0.02,,2013-02-05 04:52:00,